AAL800 KSGU-MPTO

Flight info

Callsign AAL800
Flight time 5h 12m
Altitude 39000
Route HIVKA2 MATZO DCT BLOBB Q70 BAWER Q96 ROCCY Q130 PNH J58 FUZ J33 IAH J86 KAPAA DCT SBI A766 KEHLI UA766 SUVUM/N0478F410 UA766 SIGMA UM205 SPP UN420 MORLI OSUPA2
Aircraft B772/H-SDE2E3FGHIJ5LORVWXY/LB1D1

Departure

Time 2026-04-25 18:40
Airport St George Regional Airport (KSGU)

Arrival

Time 2026-04-25 23:52
Airport Tocumen International Airport (MPTO)
Time Latitude Longitude Altitude Speed Heading
2026-04-25 18:27 37.03885 -113.50536 2886 ft 0 kts 203°
2026-04-25 18:36 37.03884 -113.50536 2886 ft 1 kts 203°
2026-04-25 18:36 37.03865 -113.50559 2887 ft 2 kts 279°
2026-04-25 18:36 37.03886 -113.50571 2888 ft 6 kts
2026-04-25 18:36 37.03966 -113.50575 2890 ft 12 kts 335°
2026-04-25 18:37 37.04049 -113.50586 2892 ft 11 kts 14°
2026-04-25 18:37 37.04139 -113.50543 2892 ft 15 kts 22°
2026-04-25 18:37 37.04271 -113.50476 2893 ft 21 kts 24°
2026-04-25 18:37 37.04443 -113.50383 2890 ft 28 kts 22°
2026-04-25 18:38 37.04625 -113.50287 2886 ft 22 kts 24°
2026-04-25 18:38 37.04710 -113.50240 2882 ft 7 kts 20°
2026-04-25 18:38 37.04756 -113.50267 2883 ft 7 kts 300°
2026-04-25 18:38 37.04779 -113.50328 2886 ft 9 kts 293°
2026-04-25 18:39 37.04781 -113.50410 2891 ft 6 kts 231°
2026-04-25 18:39 37.04697 -113.50470 2894 ft 29 kts 204°
2026-04-25 18:39 37.04187 -113.50739 2899 ft 118 kts 202°
2026-04-25 18:39 37.03138 -113.51287 2910 ft 189 kts 203°
2026-04-25 18:40 37.01870 -113.51924 3647 ft 199 kts 201°
2026-04-25 18:40 37.00671 -113.52603 4637 ft 182 kts 214°
2026-04-25 18:40 36.99743 -113.53773 4885 ft 197 kts 237°
2026-04-25 18:40 36.99272 -113.55563 5038 ft 217 kts 265°
2026-04-25 18:41 36.99596 -113.57558 5144 ft 240 kts 297°
2026-04-25 18:41 37.00814 -113.59152 5233 ft 262 kts 330°
2026-04-25 18:41 37.02731 -113.59634 5318 ft 281 kts
2026-04-25 18:41 37.04634 -113.58678 5657 ft 285 kts 31°
2026-04-25 18:42 37.06322 -113.57304 6098 ft 287 kts 34°
2026-04-25 18:42 37.06868 -113.56847 6222 ft 288 kts 34°
2026-04-25 18:42 37.09685 -113.54476 6885 ft 292 kts 34°
2026-04-25 18:42 37.11383 -113.53045 7320 ft 293 kts 34°
2026-04-25 18:43 37.12945 -113.51400 7672 ft 295 kts 52°
2026-04-25 18:43 37.14128 -113.49254 8051 ft 296 kts 60°
2026-04-25 18:43 37.15199 -113.47016 8450 ft 297 kts 61°
2026-04-25 18:43 37.16277 -113.44738 8740 ft 297 kts 60°
2026-04-25 18:44 37.17372 -113.42433 9356 ft 305 kts 60°
2026-04-25 18:44 37.18476 -113.40098 10302 ft 303 kts 61°
2026-04-25 18:44 37.19633 -113.37609 10826 ft 318 kts 61°
2026-04-25 18:44 37.20801 -113.35099 11245 ft 334 kts 61°
2026-04-25 18:45 37.21995 -113.32536 11656 ft 350 kts 61°
2026-04-25 18:45 37.23267 -113.29808 12060 ft 366 kts 61°
2026-04-25 18:45 37.24543 -113.26981 12478 ft 379 kts 65°
2026-04-25 18:45 37.25601 -113.23901 12887 ft 393 kts 69°
2026-04-25 18:46 37.26642 -113.20672 13563 ft 399 kts 70°
2026-04-25 18:46 37.27694 -113.17399 14247 ft 405 kts 69°
2026-04-25 18:46 37.28759 -113.14084 14877 ft 413 kts 69°
2026-04-25 18:46 37.29900 -113.10731 15529 ft 419 kts 64°
2026-04-25 18:47 37.31242 -113.07417 16149 ft 426 kts 63°
2026-04-25 18:47 37.32599 -113.04125 16795 ft 431 kts 63°
2026-04-25 18:47 37.34002 -113.00716 17412 ft 437 kts 62°
2026-04-25 18:47 37.35427 -112.97247 18013 ft 443 kts 62°
2026-04-25 18:48 37.36848 -112.93781 18602 ft 449 kts 62°
2026-04-25 18:48 37.38304 -112.90227 19172 ft 456 kts 62°
2026-04-25 18:48 37.39749 -112.86694 19741 ft 461 kts 62°
2026-04-25 18:48 37.41239 -112.83044 20304 ft 467 kts 62°
2026-04-25 18:49 37.42748 -112.79346 20917 ft 472 kts 62°
2026-04-25 18:49 37.44282 -112.75577 21443 ft 478 kts 62°
2026-04-25 18:49 37.45845 -112.71735 21945 ft 485 kts 62°
2026-04-25 18:49 37.47400 -112.67908 22479 ft 490 kts 62°
2026-04-25 18:50 37.48985 -112.64003 23008 ft 495 kts 62°
2026-04-25 18:50 37.50619 -112.59970 23516 ft 501 kts 62°
2026-04-25 18:50 37.52272 -112.55884 24139 ft 505 kts 62°
2026-04-25 18:50 37.53894 -112.51872 24794 ft 507 kts 62°
2026-04-25 18:51 37.55590 -112.47669 25368 ft 511 kts 62°
2026-04-25 18:51 37.56134 -112.46320 25530 ft 513 kts 62°
2026-04-25 18:51 37.58850 -112.39574 26469 ft 517 kts 62°
2026-04-25 18:51 37.60468 -112.35551 26938 ft 521 kts 61°
2026-04-25 18:52 37.62118 -112.31445 27360 ft 525 kts 61°
2026-04-25 18:52 37.63995 -112.27510 27703 ft 529 kts 53°
2026-04-25 18:52 37.66290 -112.23886 28113 ft 531 kts 47°
2026-04-25 18:52 37.68740 -112.20342 28607 ft 532 kts 46°
2026-04-25 18:53 37.71179 -112.16833 29075 ft 535 kts 46°
2026-04-25 18:53 37.73654 -112.13245 29517 ft 537 kts 47°
2026-04-25 18:53 37.75833 -112.09435 29907 ft 544 kts 56°
2026-04-25 18:53 37.77615 -112.05133 30444 ft 546 kts 65°
2026-04-25 18:54 37.79652 -111.95895 31357 ft 548 kts 83°
2026-04-25 18:54 37.79905 -111.91152 31766 ft 549 kts 92°
2026-04-25 18:54 37.79634 -111.86367 32305 ft 545 kts 101°
2026-04-25 18:55 37.78856 -111.81710 32914 ft 538 kts 109°
2026-04-25 18:55 37.77824 -111.77228 33510 ft 535 kts 111°
2026-04-25 18:55 37.76762 -111.72745 34057 ft 534 kts 110°
2026-04-25 18:55 37.75703 -111.68250 34524 ft 534 kts 110°
2026-04-25 18:56 37.74646 -111.63744 34962 ft 533 kts 110°
2026-04-25 18:56 37.73612 -111.59317 35349 ft 533 kts 110°
2026-04-25 18:56 37.72559 -111.54796 35631 ft 534 kts 110°
2026-04-25 18:56 37.71524 -111.50349 35906 ft 536 kts 110°
2026-04-25 18:57 37.70467 -111.45805 36271 ft 536 kts 110°
2026-04-25 18:57 37.69416 -111.41283 36706 ft 535 kts 110°
2026-04-25 18:57 37.68373 -111.36803 37069 ft 536 kts 110°
2026-04-25 18:57 37.68025 -111.35308 37177 ft 536 kts 110°
2026-04-25 18:58 37.66282 -111.27830 37524 ft 539 kts 111°
2026-04-25 18:58 37.64153 -111.18723 38003 ft 541 kts 111°
2026-04-25 18:58 37.63087 -111.14168 38265 ft 540 kts 111°
2026-04-25 18:59 37.60967 -111.05143 38647 ft 542 kts 111°
2026-04-25 18:59 37.58828 -110.96062 38969 ft 544 kts 111°
2026-04-25 19:00 37.55582 -110.82351 38957 ft 543 kts 111°
2026-04-25 19:01 37.52338 -110.68715 38960 ft 543 kts 111°
2026-04-25 19:01 37.50178 -110.59677 38970 ft 543 kts 111°
2026-04-25 19:02 37.46910 -110.46069 38980 ft 542 kts 111°
2026-04-25 19:03 37.44348 -110.35453 38980 ft 545 kts 111°
2026-04-25 19:03 37.41419 -110.23373 38966 ft 543 kts 111°
2026-04-25 19:04 37.38108 -110.09792 38969 ft 544 kts 112°
2026-04-25 19:05 37.33658 -109.91656 38975 ft 545 kts 111°
2026-04-25 19:06 37.31417 -109.82572 38984 ft 545 kts 112°
2026-04-25 19:06 37.28045 -109.68970 38982 ft 546 kts 111°
2026-04-25 19:07 37.24662 -109.55396 38985 ft 548 kts 112°
2026-04-25 19:08 37.21255 -109.41801 38991 ft 548 kts 111°
2026-04-25 19:09 37.17427 -109.26613 38984 ft 548 kts 112°
2026-04-25 19:10 37.13198 -109.09943 38991 ft 551 kts 112°
2026-04-25 19:10 37.10887 -109.00877 39037 ft 549 kts 112°
2026-04-25 19:11 37.08552 -108.91752 39030 ft 551 kts 112°
2026-04-25 19:11 37.06213 -108.82645 39022 ft 551 kts 112°
2026-04-25 19:12 37.03860 -108.73519 39022 ft 552 kts 112°
2026-04-25 19:12 37.01513 -108.64447 39031 ft 552 kts 112°
2026-04-25 19:13 36.99154 -108.55363 39037 ft 552 kts 112°
2026-04-25 19:13 36.96766 -108.46202 39039 ft 554 kts 112°
2026-04-25 19:14 36.94392 -108.37127 39033 ft 553 kts 112°
2026-04-25 19:14 36.92005 -108.28032 39022 ft 552 kts 112°
2026-04-25 19:15 36.89598 -108.18893 39023 ft 555 kts 112°
2026-04-25 19:15 36.87196 -108.09809 39031 ft 555 kts 112°
2026-04-25 19:16 36.84781 -108.00702 39035 ft 554 kts 113°
2026-04-25 19:16 36.82366 -107.91631 39041 ft 555 kts 113°
2026-04-25 19:17 36.79920 -107.82474 39055 ft 555 kts 112°
2026-04-25 19:17 36.77494 -107.73426 39081 ft 556 kts 112°
2026-04-25 19:18 36.75028 -107.64261 39080 ft 558 kts 112°
2026-04-25 19:18 36.72568 -107.55145 39077 ft 558 kts 112°
2026-04-25 19:19 36.70107 -107.46059 39103 ft 556 kts 112°
2026-04-25 19:19 36.67624 -107.36925 39101 ft 557 kts 112°
2026-04-25 19:20 36.65148 -107.27846 39109 ft 558 kts 113°
2026-04-25 19:20 36.62640 -107.18684 39100 ft 559 kts 112°
2026-04-25 19:21 36.60136 -107.09566 39106 ft 557 kts 112°
2026-04-25 19:21 36.56376 -106.95931 39123 ft 559 kts 113°
2026-04-25 19:22 36.53856 -106.86832 39112 ft 559 kts 113°
2026-04-25 19:23 36.50050 -106.73149 39130 ft 560 kts 112°
2026-04-25 19:23 36.46231 -106.59489 39121 ft 560 kts 112°
2026-04-25 19:24 36.43668 -106.50362 39122 ft 562 kts 112°
2026-04-25 19:25 36.38533 -106.32162 39106 ft 560 kts 113°
2026-04-25 19:25 36.35961 -106.23091 39101 ft 561 kts 113°
2026-04-25 19:26 36.33371 -106.13990 39093 ft 561 kts 113°
2026-04-25 19:26 36.30774 -106.04891 39087 ft 561 kts 113°
2026-04-25 19:27 36.29045 -105.98854 39094 ft 561 kts 113°
2026-04-25 19:27 36.25945 -105.86582 39110 ft 562 kts 108°
2026-04-25 19:28 36.23898 -105.77303 39088 ft 562 kts 108°
2026-04-25 19:28 36.21802 -105.67944 39113 ft 563 kts 108°
2026-04-25 19:29 36.19708 -105.58688 39107 ft 565 kts 108°
2026-04-25 19:29 36.17582 -105.49365 39100 ft 562 kts 108°
2026-04-25 19:30 36.15460 -105.40114 39101 ft 563 kts 108°
2026-04-25 19:30 36.13319 -105.30827 39081 ft 562 kts 109°
2026-04-25 19:31 36.11179 -105.21589 39103 ft 563 kts 108°
2026-04-25 19:31 36.09010 -105.12268 39108 ft 565 kts 109°
2026-04-25 19:32 36.06848 -105.03007 39098 ft 563 kts 109°
2026-04-25 19:32 36.05394 -104.96806 39088 ft 567 kts 108°
2026-04-25 19:33 36.02440 -104.84255 39074 ft 574 kts 109°
2026-04-25 19:33 36.00206 -104.74804 39068 ft 579 kts 109°
2026-04-25 19:34 35.97940 -104.65253 39055 ft 583 kts 109°
2026-04-25 19:34 35.95661 -104.55687 39067 ft 584 kts 109°
2026-04-25 19:35 35.93373 -104.46117 39045 ft 584 kts 108°
2026-04-25 19:35 35.91067 -104.36509 39052 ft 584 kts 108°
2026-04-25 19:36 35.88770 -104.26979 39020 ft 583 kts 109°
2026-04-25 19:36 35.86463 -104.17443 39013 ft 582 kts 109°
2026-04-25 19:37 35.84135 -104.07858 39013 ft 585 kts 109°
2026-04-25 19:37 35.81812 -103.98329 39007 ft 584 kts 109°
2026-04-25 19:38 35.79472 -103.88767 38993 ft 583 kts 109°
2026-04-25 19:38 35.77124 -103.79207 38983 ft 585 kts 109°
2026-04-25 19:39 35.74766 -103.69637 38984 ft 583 kts 109°
2026-04-25 19:39 35.72412 -103.60115 38984 ft 586 kts 109°
2026-04-25 19:40 35.70044 -103.50575 38987 ft 585 kts 109°
2026-04-25 19:40 35.67662 -103.41009 38982 ft 584 kts 109°
2026-04-25 19:41 35.65274 -103.31460 38956 ft 585 kts 110°
2026-04-25 19:41 35.63688 -103.25138 38961 ft 585 kts 109°
2026-04-25 19:42 35.60485 -103.12418 38957 ft 586 kts 109°
2026-04-25 19:42 35.58083 -103.02916 38961 ft 586 kts 109°
2026-04-25 19:43 35.55660 -102.93372 38944 ft 586 kts 109°
2026-04-25 19:43 35.53240 -102.83871 38935 ft 585 kts 109°
2026-04-25 19:44 35.50806 -102.74355 38931 ft 587 kts 109°
2026-04-25 19:44 35.48364 -102.64838 38925 ft 584 kts 109°
2026-04-25 19:45 35.45907 -102.55299 38929 ft 586 kts 109°
2026-04-25 19:45 35.43456 -102.45821 38930 ft 587 kts 109°
2026-04-25 19:46 35.40997 -102.36342 38934 ft 586 kts 109°
2026-04-25 19:46 35.38529 -102.26863 38911 ft 584 kts 110°
2026-04-25 19:47 35.36055 -102.17397 38908 ft 586 kts 110°
2026-04-25 19:47 35.33555 -102.07865 38906 ft 585 kts 110°
2026-04-25 19:48 35.31081 -101.98470 38901 ft 586 kts 110°
2026-04-25 19:48 35.28573 -101.88974 38896 ft 586 kts 110°
2026-04-25 19:49 35.26909 -101.82694 38897 ft 585 kts 110°
2026-04-25 19:49 35.23489 -101.70140 38885 ft 583 kts 115°
2026-04-25 19:50 35.18412 -101.56641 38888 ft 582 kts 118°
2026-04-25 19:51 35.14970 -101.47704 38895 ft 582 kts 118°
2026-04-25 19:51 35.11526 -101.38786 38893 ft 583 kts 118°
2026-04-25 19:52 35.08076 -101.29880 38873 ft 582 kts 118°
2026-04-25 19:52 35.04615 -101.20969 38871 ft 582 kts 118°
2026-04-25 19:53 35.01157 -101.12091 38859 ft 582 kts 118°
2026-04-25 19:53 34.97686 -101.03206 38852 ft 583 kts 118°
2026-04-25 19:54 34.94206 -100.94318 38844 ft 581 kts 118°
2026-04-25 19:54 34.90723 -100.85448 38842 ft 583 kts 118°
2026-04-25 19:55 34.87235 -100.76592 38835 ft 581 kts 118°
2026-04-25 19:55 34.83726 -100.67704 38826 ft 583 kts 118°
2026-04-25 19:56 34.80214 -100.58831 38821 ft 582 kts 118°
2026-04-25 19:56 34.76730 -100.50055 38820 ft 582 kts 118°
2026-04-25 19:57 34.73206 -100.41201 38810 ft 583 kts 118°
2026-04-25 19:57 34.69670 -100.32340 38788 ft 582 kts 119°
2026-04-25 19:58 34.66138 -100.23512 38786 ft 583 kts 119°
2026-04-25 19:58 34.62594 -100.14679 38794 ft 582 kts 119°
2026-04-25 19:59 34.59057 -100.05887 38786 ft 582 kts 119°
2026-04-25 19:59 34.55504 -99.97076 38781 ft 581 kts 119°
2026-04-25 20:00 34.51969 -99.88336 38782 ft 583 kts 118°
2026-04-25 20:00 34.48400 -99.79533 38777 ft 582 kts 119°
2026-04-25 20:01 34.43027 -99.66325 38772 ft 584 kts 119°
2026-04-25 20:01 34.39466 -99.57598 38775 ft 583 kts 119°
2026-04-25 20:02 34.35868 -99.48805 38780 ft 584 kts 119°
2026-04-25 20:02 34.32256 -99.39999 38780 ft 584 kts 118°
2026-04-25 20:03 34.28658 -99.31252 38755 ft 584 kts 120°
2026-04-25 20:03 34.25060 -99.22527 38751 ft 582 kts 119°
2026-04-25 20:04 34.21431 -99.13749 38753 ft 584 kts 119°
2026-04-25 20:04 34.17810 -99.05013 38755 ft 583 kts 119°
2026-04-25 20:05 34.14222 -98.96379 38756 ft 585 kts 119°
2026-04-25 20:05 34.10601 -98.87687 38759 ft 585 kts 119°
2026-04-25 20:06 34.06949 -98.78943 38757 ft 585 kts 119°
2026-04-25 20:06 34.03293 -98.70212 38764 ft 586 kts 119°
2026-04-25 20:07 33.99492 -98.61518 38763 ft 583 kts 126°
2026-04-25 20:07 33.94515 -98.53990 38759 ft 577 kts 137°
2026-04-25 20:08 33.89133 -98.46854 38767 ft 575 kts 137°
2026-04-25 20:08 33.83733 -98.39751 38773 ft 576 kts 137°
2026-04-25 20:09 33.78306 -98.32642 38760 ft 577 kts 138°
2026-04-25 20:09 33.72904 -98.25590 38751 ft 575 kts 138°
2026-04-25 20:10 33.67489 -98.18542 38752 ft 576 kts 138°
2026-04-25 20:10 33.62089 -98.11530 38763 ft 575 kts 138°
2026-04-25 20:11 33.56656 -98.04492 38780 ft 577 kts 138°
2026-04-25 20:11 33.51187 -97.97420 38795 ft 576 kts 138°
2026-04-25 20:12 33.45762 -97.90423 38796 ft 577 kts 139°
2026-04-25 20:12 33.42122 -97.85735 38795 ft 577 kts 138°
2026-04-25 20:13 33.34840 -97.76374 38802 ft 577 kts 138°
2026-04-25 20:13 33.29397 -97.69393 38805 ft 576 kts 138°
2026-04-25 20:14 33.23904 -97.62364 38820 ft 579 kts 138°
2026-04-25 20:14 33.18450 -97.55396 38829 ft 578 kts 138°
2026-04-25 20:15 33.12957 -97.48391 38824 ft 576 kts 138°
2026-04-25 20:15 33.07479 -97.41421 38826 ft 578 kts 139°
2026-04-25 20:16 33.01989 -97.34449 38824 ft 576 kts 139°
2026-04-25 20:16 32.96507 -97.27502 38813 ft 578 kts 139°
2026-04-25 20:17 32.91002 -97.20538 38818 ft 578 kts 139°
2026-04-25 20:17 32.85427 -97.13704 38821 ft 576 kts 142°
2026-04-25 20:18 32.79712 -97.07073 38819 ft 574 kts 142°
2026-04-25 20:18 32.73980 -97.00426 38821 ft 577 kts 141°
2026-04-25 20:19 32.68242 -96.93769 38823 ft 575 kts 141°
2026-04-25 20:19 32.62524 -96.87141 38829 ft 577 kts 141°
2026-04-25 20:20 32.56810 -96.80525 38830 ft 575 kts 141°
2026-04-25 20:20 32.51071 -96.73891 38833 ft 575 kts 141°
2026-04-25 20:21 32.45361 -96.67300 38837 ft 576 kts 141°
2026-04-25 20:21 32.39616 -96.60683 38835 ft 577 kts 141°
2026-04-25 20:22 32.35767 -96.56255 38831 ft 578 kts 141°
2026-04-25 20:22 32.28082 -96.47430 38838 ft 578 kts 141°
2026-04-25 20:23 32.22321 -96.40828 38845 ft 578 kts 141°
2026-04-25 20:23 32.16568 -96.34248 38842 ft 577 kts 142°
2026-04-25 20:24 32.10828 -96.27696 38832 ft 578 kts 141°
2026-04-25 20:24 32.05030 -96.21089 38840 ft 580 kts 141°
2026-04-25 20:25 31.99213 -96.14473 38839 ft 578 kts 141°
2026-04-25 20:25 31.93434 -96.07912 38837 ft 579 kts 141°
2026-04-25 20:26 31.87601 -96.01302 38826 ft 581 kts 141°
2026-04-25 20:26 31.81782 -95.94720 38836 ft 581 kts 141°
2026-04-25 20:27 31.75986 -95.88177 38843 ft 582 kts 141°
2026-04-25 20:27 31.70150 -95.81599 38841 ft 581 kts 141°
2026-04-25 20:28 31.64039 -95.75573 38842 ft 571 kts 153°
2026-04-25 20:28 31.56996 -95.71596 38841 ft 550 kts 171°
2026-04-25 20:29 31.49664 -95.69549 38838 ft 542 kts 177°
2026-04-25 20:29 31.42287 -95.67793 38841 ft 538 kts 178°
2026-04-25 20:30 31.34943 -95.66077 38845 ft 539 kts 178°
2026-04-25 20:30 31.27604 -95.64378 38850 ft 542 kts 178°
2026-04-25 20:31 31.20224 -95.62676 38847 ft 538 kts 178°
2026-04-25 20:31 31.12834 -95.60983 38848 ft 540 kts 178°
2026-04-25 20:32 31.05470 -95.59299 38845 ft 541 kts 178°
2026-04-25 20:32 30.98091 -95.57615 38846 ft 540 kts 178°
2026-04-25 20:33 30.90746 -95.55943 38851 ft 540 kts 178°
2026-04-25 20:33 30.85815 -95.54823 38853 ft 540 kts 178°
2026-04-25 20:34 30.76010 -95.52600 38859 ft 540 kts 178°
2026-04-25 20:34 30.68619 -95.50929 38859 ft 541 kts 178°
2026-04-25 20:35 30.61269 -95.49268 38860 ft 539 kts 178°
2026-04-25 20:35 30.53907 -95.47607 38854 ft 540 kts 177°
2026-04-25 20:36 30.46480 -95.45936 38860 ft 541 kts 177°
2026-04-25 20:36 30.39113 -95.44279 38866 ft 540 kts 177°
2026-04-25 20:37 30.31715 -95.42619 38867 ft 541 kts 177°
2026-04-25 20:37 30.24351 -95.40970 38866 ft 542 kts 177°
2026-04-25 20:38 30.16902 -95.39302 38867 ft 542 kts 177°
2026-04-25 20:38 30.09540 -95.37145 38872 ft 555 kts 165°
2026-04-25 20:39 30.02720 -95.32829 38850 ft 570 kts 148°
2026-04-25 20:39 29.98745 -95.28788 38831 ft 578 kts 136°
2026-04-25 20:40 29.94692 -95.22604 38840 ft 585 kts 121°
2026-04-25 20:40 29.92863 -95.18409 38844 ft 587 kts 112°
2026-04-25 20:40 29.90771 -95.09371 38842 ft 583 kts 94°
2026-04-25 20:41 29.90152 -95.00101 38859 ft 580 kts 91°
2026-04-25 20:41 29.89388 -94.90890 38846 ft 581 kts 93°
2026-04-25 20:42 29.88433 -94.81676 38839 ft 581 kts 94°
2026-04-25 20:42 29.87360 -94.72444 38851 ft 581 kts 94°
2026-04-25 20:43 29.86224 -94.63280 38848 ft 580 kts 95°
2026-04-25 20:43 29.85046 -94.54118 38842 ft 579 kts 95°
2026-04-25 20:44 29.83360 -94.45065 38846 ft 584 kts 107°
2026-04-25 20:44 29.80373 -94.36361 38861 ft 584 kts 110°
2026-04-25 20:45 29.77286 -94.27728 38841 ft 582 kts 111°
2026-04-25 20:45 29.74206 -94.19151 38853 ft 584 kts 111°
2026-04-25 20:46 29.71024 -94.10567 38839 ft 584 kts 116°
2026-04-25 20:46 29.66516 -94.02947 38848 ft 582 kts 134°
2026-04-25 20:47 29.60483 -93.96823 38856 ft 576 kts 147°
2026-04-25 20:47 29.54076 -93.91316 38850 ft 573 kts 147°
2026-04-25 20:48 29.47710 -93.85875 38855 ft 575 kts 147°
2026-04-25 20:48 29.41275 -93.80386 38859 ft 574 kts 147°
2026-04-25 20:49 29.34860 -93.74925 38864 ft 575 kts 147°
2026-04-25 20:49 29.28430 -93.69460 38866 ft 574 kts 147°
2026-04-25 20:50 29.22028 -93.64029 38870 ft 575 kts 147°
2026-04-25 20:50 29.15609 -93.58591 38866 ft 574 kts 147°
2026-04-25 20:51 29.09212 -93.53182 38875 ft 575 kts 147°
2026-04-25 20:51 29.02747 -93.47724 38874 ft 574 kts 147°
2026-04-25 20:52 28.97428 -93.43240 38880 ft 575 kts 147°
2026-04-25 20:52 28.89917 -93.36918 38882 ft 574 kts 147°
2026-04-25 20:53 28.83485 -93.31514 38853 ft 574 kts 147°
2026-04-25 20:53 28.77024 -93.26094 38854 ft 575 kts 147°
2026-04-25 20:54 28.70621 -93.20731 38855 ft 575 kts 147°
2026-04-25 20:54 28.64185 -93.15348 38858 ft 574 kts 147°
2026-04-25 20:55 28.57745 -93.09971 38861 ft 574 kts 147°
2026-04-25 20:55 28.51288 -93.04588 38862 ft 574 kts 147°
2026-04-25 20:56 28.44856 -92.99234 38864 ft 574 kts 147°
2026-04-25 20:56 28.38416 -92.93882 38866 ft 573 kts 147°
2026-04-25 20:57 28.31971 -92.88535 38868 ft 575 kts 147°
2026-04-25 20:57 28.25546 -92.83210 38872 ft 573 kts 147°
2026-04-25 20:58 28.19085 -92.77864 38877 ft 573 kts 147°
2026-04-25 20:58 28.12639 -92.72538 38878 ft 573 kts 146°
2026-04-25 20:59 28.06187 -92.67217 38883 ft 573 kts 147°
2026-04-25 20:59 27.99789 -92.61947 38882 ft 572 kts 146°
2026-04-25 21:00 27.95466 -92.58392 38879 ft 572 kts 146°
2026-04-25 21:01 27.83698 -92.48732 38878 ft 571 kts 146°
2026-04-25 21:01 27.77256 -92.43455 38882 ft 572 kts 146°
2026-04-25 21:02 27.70795 -92.38170 38879 ft 571 kts 146°
2026-04-25 21:02 27.64383 -92.32933 38865 ft 571 kts 146°
2026-04-25 21:03 27.57926 -92.27667 38868 ft 571 kts 146°
2026-04-25 21:03 27.51522 -92.22452 38874 ft 571 kts 146°
2026-04-25 21:04 27.45087 -92.17220 38886 ft 570 kts 147°
2026-04-25 21:04 27.38633 -92.11980 38870 ft 570 kts 147°
2026-04-25 21:05 27.32232 -92.06790 38881 ft 568 kts 146°
2026-04-25 21:05 27.25802 -92.01585 38892 ft 569 kts 146°
2026-04-25 21:06 27.19369 -91.96384 38871 ft 568 kts 146°
2026-04-25 21:06 27.12980 -91.91228 38898 ft 569 kts 146°
2026-04-25 21:07 27.06551 -91.86049 38895 ft 567 kts 146°
2026-04-25 21:07 27.00136 -91.80888 38890 ft 569 kts 146°
2026-04-25 21:08 26.93707 -91.75723 38899 ft 568 kts 146°
2026-04-25 21:08 26.87284 -91.70570 38885 ft 568 kts 146°
2026-04-25 21:09 26.77454 -91.62698 38887 ft 568 kts 146°
2026-04-25 21:09 26.70870 -91.57435 38884 ft 568 kts 146°
2026-04-25 21:10 26.64416 -91.52283 38895 ft 568 kts 146°
2026-04-25 21:10 26.57955 -91.47133 38899 ft 568 kts 146°
2026-04-25 21:11 26.51516 -91.42008 38896 ft 569 kts 146°
2026-04-25 21:11 26.45062 -91.36878 38890 ft 569 kts 146°
2026-04-25 21:12 26.38516 -91.31682 38888 ft 568 kts 147°
2026-04-25 21:12 26.34153 -91.28223 38885 ft 567 kts 147°
2026-04-25 21:13 26.25506 -91.21378 38890 ft 567 kts 147°
2026-04-25 21:13 26.19059 -91.16282 38891 ft 567 kts 147°
2026-04-25 21:14 26.12602 -91.11186 38883 ft 568 kts 147°
2026-04-25 21:14 26.06181 -91.06124 38879 ft 566 kts 147°
2026-04-25 21:15 25.99751 -91.01063 38897 ft 566 kts 147°
2026-04-25 21:15 25.93308 -90.95998 38890 ft 566 kts 147°
2026-04-25 21:16 25.86849 -90.90929 38880 ft 565 kts 147°
2026-04-25 21:16 25.80371 -90.85850 38881 ft 567 kts 147°
2026-04-25 21:17 25.73884 -90.80772 38884 ft 567 kts 147°
2026-04-25 21:17 25.67461 -90.75751 38881 ft 567 kts 147°
2026-04-25 21:18 25.60972 -90.70686 38889 ft 566 kts 147°
2026-04-25 21:18 25.54554 -90.65682 38886 ft 568 kts 147°
2026-04-25 21:19 25.48092 -90.60650 38892 ft 567 kts 147°
2026-04-25 21:19 25.41638 -90.55632 38895 ft 567 kts 147°
2026-04-25 21:20 25.37322 -90.52280 38897 ft 567 kts 147°
2026-04-25 21:20 25.28703 -90.45594 38895 ft 566 kts 147°
2026-04-25 21:21 25.22228 -90.40579 38899 ft 568 kts 147°
2026-04-25 21:21 25.15780 -90.35592 38899 ft 567 kts 147°
2026-04-25 21:22 25.09257 -90.30553 38881 ft 566 kts 147°
2026-04-25 21:22 25.02800 -90.25573 38882 ft 567 kts 148°
2026-04-25 21:23 24.96191 -90.20481 38891 ft 567 kts 148°
2026-04-25 21:23 24.89732 -90.15511 38885 ft 565 kts 148°
2026-04-25 21:24 24.83076 -90.10397 38879 ft 565 kts 148°
2026-04-25 21:24 24.76495 -90.05348 38876 ft 564 kts 148°
2026-04-25 21:25 24.69935 -90.00320 38877 ft 564 kts 148°
2026-04-25 21:25 24.63490 -89.95388 38880 ft 564 kts 148°
2026-04-25 21:26 24.57078 -89.90487 38878 ft 564 kts 148°
2026-04-25 21:26 24.50639 -89.85572 38881 ft 562 kts 148°
2026-04-25 21:27 24.44205 -89.80665 38887 ft 564 kts 148°
2026-04-25 21:27 24.37766 -89.75757 38889 ft 561 kts 148°
2026-04-25 21:28 24.31378 -89.70895 38896 ft 562 kts 148°
2026-04-25 21:28 24.24942 -89.66003 38892 ft 561 kts 148°
2026-04-25 21:29 24.18513 -89.61122 38891 ft 560 kts 148°
2026-04-25 21:29 24.12124 -89.56278 38895 ft 560 kts 148°
2026-04-25 21:30 24.05732 -89.51437 38896 ft 558 kts 148°
2026-04-25 21:30 24.00406 -89.47409 38893 ft 558 kts 148°
2026-04-25 21:31 23.92957 -89.41781 38897 ft 557 kts 148°
2026-04-25 21:31 23.86580 -89.36968 38888 ft 556 kts 148°
2026-04-25 21:32 23.80165 -89.32131 38873 ft 555 kts 149°
2026-04-25 21:32 23.73782 -89.27325 38874 ft 556 kts 149°
2026-04-25 21:33 23.67339 -89.22480 38868 ft 555 kts 149°
2026-04-25 21:33 23.61016 -89.17728 38924 ft 545 kts 149°
2026-04-25 21:34 23.57914 -89.15398 39421 ft 540 kts 149°
2026-04-25 21:34 23.54847 -89.13097 40121 ft 531 kts 150°
2026-04-25 21:34 23.51852 -89.10850 40603 ft 526 kts 150°
2026-04-25 21:34 23.48822 -89.08581 40725 ft 527 kts 150°
2026-04-25 21:35 23.42748 -89.04037 40886 ft 530 kts 150°
2026-04-25 21:35 23.36647 -88.99474 40883 ft 529 kts 150°
2026-04-25 21:36 23.30574 -88.94937 40888 ft 528 kts 150°
2026-04-25 21:36 23.24511 -88.90414 40887 ft 528 kts 150°
2026-04-25 21:37 23.20453 -88.87388 40891 ft 529 kts 150°
2026-04-25 21:37 23.12364 -88.81364 40888 ft 527 kts 150°
2026-04-25 21:38 23.06331 -88.76877 40885 ft 527 kts 150°
2026-04-25 21:38 23.00253 -88.72361 40895 ft 527 kts 150°
2026-04-25 21:39 22.94217 -88.67881 40888 ft 526 kts 150°
2026-04-25 21:39 22.88167 -88.63396 40890 ft 527 kts 150°
2026-04-25 21:40 22.82102 -88.58903 40882 ft 526 kts 150°
2026-04-25 21:40 22.76059 -88.54434 40882 ft 527 kts 150°
2026-04-25 21:41 22.70015 -88.49976 40880 ft 525 kts 150°
2026-04-25 21:41 22.63992 -88.45541 40884 ft 526 kts 150°
2026-04-25 21:42 22.57918 -88.41071 40888 ft 526 kts 150°
2026-04-25 21:42 22.51885 -88.36632 40885 ft 526 kts 150°
2026-04-25 21:43 22.45832 -88.32182 40868 ft 523 kts 151°
2026-04-25 21:43 22.39804 -88.27758 40867 ft 526 kts 151°
2026-04-25 21:44 22.33740 -88.23311 40866 ft 525 kts 151°
2026-04-25 21:45 22.24663 -88.16663 40863 ft 524 kts 151°
2026-04-25 21:45 22.18631 -88.12251 40869 ft 524 kts 151°
2026-04-25 21:46 22.12578 -88.07826 40868 ft 525 kts 151°
2026-04-25 21:46 22.06524 -88.03401 40862 ft 523 kts 151°
2026-04-25 21:47 22.00523 -87.99021 40872 ft 523 kts 151°
2026-04-25 21:47 21.94472 -87.94609 40865 ft 523 kts 151°
2026-04-25 21:48 21.88423 -87.90204 40859 ft 524 kts 151°
2026-04-25 21:48 21.82432 -87.85843 40858 ft 521 kts 151°
2026-04-25 21:49 21.76394 -87.81457 40859 ft 522 kts 151°
2026-04-25 21:49 21.70405 -87.77109 40863 ft 518 kts 151°
2026-04-25 21:50 21.64406 -87.72762 40852 ft 520 kts 151°
2026-04-25 21:50 21.58415 -87.68424 40860 ft 519 kts 151°
2026-04-25 21:51 21.52406 -87.64076 40862 ft 518 kts 151°
2026-04-25 21:51 21.46448 -87.59771 40858 ft 517 kts 151°
2026-04-25 21:52 21.40475 -87.55458 40864 ft 517 kts 151°
2026-04-25 21:52 21.34502 -87.51148 40856 ft 515 kts 151°
2026-04-25 21:53 21.28559 -87.46867 40862 ft 516 kts 151°
2026-04-25 21:53 21.22588 -87.42567 40866 ft 513 kts 151°
2026-04-25 21:54 21.16664 -87.38306 40867 ft 514 kts 151°
2026-04-25 21:54 21.10763 -87.34067 40853 ft 513 kts 152°
2026-04-25 21:55 21.04834 -87.29811 40849 ft 513 kts 152°
2026-04-25 21:55 20.98883 -87.25544 40847 ft 511 kts 152°
2026-04-25 21:56 20.92987 -87.21320 40857 ft 512 kts 152°
2026-04-25 21:56 20.87067 -87.17086 40859 ft 512 kts 152°
2026-04-25 21:57 20.81160 -87.12865 40864 ft 511 kts 152°
2026-04-25 21:57 20.75266 -87.08657 40878 ft 510 kts 152°
2026-04-25 21:58 20.69357 -87.04443 40874 ft 510 kts 152°
2026-04-25 21:58 20.63460 -87.00242 40883 ft 510 kts 152°
2026-04-25 21:59 20.57566 -86.96046 40888 ft 509 kts 152°
2026-04-25 21:59 20.51664 -86.91849 40891 ft 509 kts 152°
2026-04-25 22:00 20.42582 -86.86055 40892 ft 507 kts 155°
2026-04-25 22:00 20.36487 -86.82327 40887 ft 504 kts 155°
2026-04-25 22:01 20.30373 -86.78577 40884 ft 507 kts 155°
2026-04-25 22:01 20.25286 -86.75449 40888 ft 505 kts 155°
2026-04-25 22:02 20.18202 -86.71090 40886 ft 505 kts 155°
2026-04-25 22:02 20.12129 -86.67360 40887 ft 506 kts 155°
2026-04-25 22:03 20.06011 -86.63625 40890 ft 504 kts 155°
2026-04-25 22:03 19.99911 -86.59902 40888 ft 505 kts 155°
2026-04-25 22:04 19.93825 -86.56191 40890 ft 504 kts 155°
2026-04-25 22:04 19.87750 -86.52490 40891 ft 504 kts 155°
2026-04-25 22:05 19.81694 -86.48802 40892 ft 503 kts 155°
2026-04-25 22:05 19.75604 -86.45097 40891 ft 503 kts 155°
2026-04-25 22:06 19.69500 -86.41387 40892 ft 503 kts 155°
2026-04-25 22:06 19.63425 -86.37698 40893 ft 503 kts 155°
2026-04-25 22:07 19.58427 -86.34508 40894 ft 506 kts 152°
2026-04-25 22:07 19.51591 -86.29716 40879 ft 506 kts 152°
2026-04-25 22:08 19.45727 -86.25626 40879 ft 505 kts 152°
2026-04-25 22:08 19.39848 -86.21544 40881 ft 505 kts 152°
2026-04-25 22:09 19.33954 -86.17462 40880 ft 504 kts 152°
2026-04-25 22:09 19.28071 -86.13397 40882 ft 505 kts 152°
2026-04-25 22:10 19.22164 -86.09321 40882 ft 504 kts 152°
2026-04-25 22:10 19.16308 -86.05284 40883 ft 504 kts 152°
2026-04-25 22:11 19.10410 -86.01223 40883 ft 505 kts 152°
2026-04-25 22:11 19.04530 -85.97178 40883 ft 504 kts 152°
2026-04-25 22:12 18.98664 -85.93147 40883 ft 504 kts 152°
2026-04-25 22:12 18.93750 -85.89771 40883 ft 502 kts 152°
2026-04-25 22:13 18.86931 -85.85093 40885 ft 502 kts 151°
2026-04-25 22:13 18.81069 -85.81074 40884 ft 502 kts 151°
2026-04-25 22:14 18.75193 -85.77050 40881 ft 501 kts 151°
2026-04-25 22:14 18.69354 -85.73055 40884 ft 501 kts 151°
2026-04-25 22:15 18.63536 -85.69076 40878 ft 499 kts 151°
2026-04-25 22:16 18.54784 -85.63098 40876 ft 500 kts 151°
2026-04-25 22:16 18.48946 -85.59115 40878 ft 499 kts 151°
2026-04-25 22:17 18.43124 -85.55145 40879 ft 499 kts 151°
2026-04-25 22:17 18.37261 -85.51151 40879 ft 498 kts 151°
2026-04-25 22:18 18.31458 -85.47201 40876 ft 498 kts 151°
2026-04-25 22:18 18.25631 -85.43239 40880 ft 498 kts 151°
2026-04-25 22:19 18.19811 -85.39284 40874 ft 498 kts 151°
2026-04-25 22:19 18.13993 -85.35333 40874 ft 497 kts 151°
2026-04-25 22:20 18.08195 -85.31400 40864 ft 497 kts 151°
2026-04-25 22:20 18.02344 -85.27434 40859 ft 497 kts 151°
2026-04-25 22:21 17.96577 -85.23526 40860 ft 495 kts 151°
2026-04-25 22:21 17.90742 -85.19579 40862 ft 498 kts 151°
2026-04-25 22:22 17.84923 -85.15642 40861 ft 497 kts 151°
2026-04-25 22:22 17.79085 -85.11697 40863 ft 496 kts 151°
2026-04-25 22:23 17.73315 -85.07800 40863 ft 494 kts 151°
2026-04-25 22:23 17.67528 -85.03896 40864 ft 495 kts 151°
2026-04-25 22:24 17.61710 -84.99973 40862 ft 495 kts 151°
2026-04-25 22:24 17.55942 -84.96088 40863 ft 494 kts 151°
2026-04-25 22:25 17.50125 -84.92172 40864 ft 494 kts 151°
2026-04-25 22:25 17.44329 -84.88274 40863 ft 494 kts 151°
2026-04-25 22:26 17.38570 -84.84403 40862 ft 494 kts 151°
2026-04-25 22:26 17.32781 -84.80514 40868 ft 492 kts 151°
2026-04-25 22:27 17.27022 -84.76650 40867 ft 492 kts 151°
2026-04-25 22:27 17.21260 -84.72786 40867 ft 492 kts 151°
2026-04-25 22:28 17.15494 -84.68922 40872 ft 491 kts 151°
2026-04-25 22:28 17.09734 -84.65066 40870 ft 490 kts 151°
2026-04-25 22:29 17.04003 -84.61231 40868 ft 490 kts 151°
2026-04-25 22:29 16.98239 -84.57378 40872 ft 491 kts 150°
2026-04-25 22:30 16.89611 -84.51614 40873 ft 488 kts 151°
2026-04-25 22:30 16.84853 -84.48439 40874 ft 489 kts 151°
2026-04-25 22:31 16.78158 -84.43973 40877 ft 488 kts 150°
2026-04-25 22:31 16.72414 -84.40146 40871 ft 489 kts 150°
2026-04-25 22:32 16.66636 -84.36298 40872 ft 488 kts 150°
2026-04-25 22:32 16.60910 -84.32488 40862 ft 488 kts 151°
2026-04-25 22:33 16.55170 -84.28670 40860 ft 488 kts 151°
2026-04-25 22:33 16.49391 -84.24831 40866 ft 488 kts 151°
2026-04-25 22:34 16.43680 -84.21039 40863 ft 488 kts 151°
2026-04-25 22:34 16.37897 -84.17197 40863 ft 488 kts 150°
2026-04-25 22:35 16.32123 -84.13360 40860 ft 487 kts 151°
2026-04-25 22:35 16.26392 -84.09556 40867 ft 488 kts 151°
2026-04-25 22:36 16.20645 -84.05743 40865 ft 488 kts 150°
2026-04-25 22:36 16.14895 -84.01932 40865 ft 487 kts 150°
2026-04-25 22:37 16.09119 -83.98106 40869 ft 487 kts 150°
2026-04-25 22:37 16.03413 -83.94329 40866 ft 486 kts 150°
2026-04-25 22:38 15.97699 -83.90550 40863 ft 487 kts 150°
2026-04-25 22:38 15.91972 -83.86763 40866 ft 486 kts 150°
2026-04-25 22:39 15.86231 -83.82971 40865 ft 486 kts 150°
2026-04-25 22:39 15.80541 -83.79215 40867 ft 486 kts 150°
2026-04-25 22:40 15.74788 -83.75420 40870 ft 486 kts 150°
2026-04-25 22:40 15.69050 -83.71638 40870 ft 486 kts 150°
2026-04-25 22:41 15.63337 -83.67874 40872 ft 486 kts 150°
2026-04-25 22:41 15.57639 -83.64123 40867 ft 485 kts 150°
2026-04-25 22:42 15.51891 -83.60342 40873 ft 485 kts 150°
2026-04-25 22:42 15.46187 -83.56591 40870 ft 485 kts 150°
2026-04-25 22:43 15.40447 -83.52820 40871 ft 485 kts 150°
2026-04-25 22:43 15.34751 -83.49081 40870 ft 485 kts 149°
2026-04-25 22:44 15.29018 -83.45319 40874 ft 485 kts 150°
2026-04-25 22:44 15.23326 -83.41586 40866 ft 484 kts 149°
2026-04-25 22:45 15.17601 -83.37834 40871 ft 485 kts 149°
2026-04-25 22:45 15.11906 -83.34105 40870 ft 485 kts 150°
2026-04-25 22:46 15.06206 -83.30374 40870 ft 484 kts 150°
2026-04-25 22:46 15.00465 -83.26620 40872 ft 484 kts 149°
2026-04-25 22:47 14.94773 -83.22899 40870 ft 484 kts 149°
2026-04-25 22:47 14.89051 -83.19162 40868 ft 484 kts 149°
2026-04-25 22:48 14.83318 -83.15419 40879 ft 483 kts 149°
2026-04-25 22:48 14.77621 -83.11703 40879 ft 483 kts 149°
2026-04-25 22:49 14.71900 -83.07973 40882 ft 483 kts 149°
2026-04-25 22:49 14.66185 -83.04250 40882 ft 483 kts 149°
2026-04-25 22:50 14.60480 -83.00535 40878 ft 483 kts 149°
2026-04-25 22:50 14.54762 -82.96814 40882 ft 483 kts 149°
2026-04-25 22:51 14.49087 -82.93123 40884 ft 483 kts 149°
2026-04-25 22:51 14.43391 -82.89421 40883 ft 482 kts 149°
2026-04-25 22:52 14.37680 -82.85712 40885 ft 483 kts 149°
2026-04-25 22:52 14.32929 -82.82627 40887 ft 482 kts 149°
2026-04-25 22:53 14.26315 -82.78336 40885 ft 482 kts 149°
2026-04-25 22:53 14.20622 -82.74645 40885 ft 482 kts 149°
2026-04-25 22:54 14.14932 -82.70959 40883 ft 482 kts 149°
2026-04-25 22:54 14.09248 -82.67278 40883 ft 481 kts 149°
2026-04-25 22:55 14.03542 -82.63584 40886 ft 482 kts 149°
2026-04-25 22:55 13.97885 -82.59926 40884 ft 481 kts 149°
2026-04-25 22:56 13.92196 -82.56248 40885 ft 481 kts 149°
2026-04-25 22:56 13.86506 -82.52576 40886 ft 481 kts 149°
2026-04-25 22:57 13.80817 -82.48915 40886 ft 481 kts 149°
2026-04-25 22:57 13.75127 -82.45255 40886 ft 481 kts 149°
2026-04-25 22:58 13.69468 -82.41618 40886 ft 480 kts 149°
2026-04-25 22:58 13.63751 -82.37944 40886 ft 480 kts 149°
2026-04-25 22:59 13.58065 -82.34293 40883 ft 480 kts 150°
2026-04-25 22:59 13.52413 -82.30665 40882 ft 480 kts 149°
2026-04-25 23:00 13.46709 -82.27007 40882 ft 479 kts 150°
2026-04-25 23:00 13.41030 -82.23366 40882 ft 479 kts 150°
2026-04-25 23:01 13.35349 -82.19726 40883 ft 478 kts 149°
2026-04-25 23:01 13.29705 -82.16112 40883 ft 478 kts 149°
2026-04-25 23:02 13.24049 -82.12492 40883 ft 478 kts 149°
2026-04-25 23:02 13.18418 -82.08890 40883 ft 478 kts 150°
2026-04-25 23:03 13.12744 -82.05263 40883 ft 478 kts 150°
2026-04-25 23:03 13.07078 -82.01643 40883 ft 478 kts 150°
2026-04-25 23:04 13.02396 -81.98653 40883 ft 477 kts 150°
2026-04-25 23:04 12.95811 -81.94450 40881 ft 477 kts 150°
2026-04-25 23:05 12.90179 -81.90857 40885 ft 477 kts 150°
2026-04-25 23:05 12.84524 -81.87252 40887 ft 477 kts 150°
2026-04-25 23:06 12.78882 -81.83656 40893 ft 477 kts 150°
2026-04-25 23:06 12.73222 -81.80052 40899 ft 477 kts 150°
2026-04-25 23:07 12.67588 -81.76466 40900 ft 477 kts 150°
2026-04-25 23:07 12.61940 -81.72872 40897 ft 478 kts 150°
2026-04-25 23:08 12.56252 -81.69301 40902 ft 477 kts 152°
2026-04-25 23:08 12.50447 -81.65968 40898 ft 477 kts 153°
2026-04-25 23:09 12.44671 -81.62652 40896 ft 477 kts 152°
2026-04-25 23:09 12.38898 -81.59329 40890 ft 477 kts 152°
2026-04-25 23:10 12.33097 -81.55988 40895 ft 477 kts 152°
2026-04-25 23:10 12.27313 -81.52654 40887 ft 477 kts 152°
2026-04-25 23:11 12.21517 -81.49314 40887 ft 477 kts 152°
2026-04-25 23:11 12.15738 -81.45985 40886 ft 476 kts 152°
2026-04-25 23:12 12.09935 -81.42642 40889 ft 476 kts 153°
2026-04-25 23:12 12.04164 -81.39320 40887 ft 476 kts 152°
2026-04-25 23:13 11.98375 -81.35989 40887 ft 477 kts 153°
2026-04-25 23:13 11.92595 -81.32664 40885 ft 476 kts 153°
2026-04-25 23:14 11.86832 -81.29351 40886 ft 476 kts 153°
2026-04-25 23:14 11.81055 -81.26032 40882 ft 476 kts 153°
2026-04-25 23:15 11.75272 -81.22710 40885 ft 476 kts 153°
2026-04-25 23:15 11.69467 -81.19378 40887 ft 475 kts 153°
2026-04-25 23:16 11.63703 -81.16071 40884 ft 475 kts 153°
2026-04-25 23:16 11.57961 -81.12778 40886 ft 475 kts 153°
2026-04-25 23:17 11.52161 -81.09453 40885 ft 475 kts 153°
2026-04-25 23:17 11.46401 -81.06153 40884 ft 474 kts 153°
2026-04-25 23:18 11.40634 -81.02850 40880 ft 474 kts 153°
2026-04-25 23:18 11.34890 -80.99562 40887 ft 474 kts 152°
2026-04-25 23:19 11.29116 -80.96259 40888 ft 474 kts 153°
2026-04-25 23:19 11.23356 -80.92964 40880 ft 474 kts 153°
2026-04-25 23:20 11.17571 -80.89658 40882 ft 474 kts 153°
2026-04-25 23:20 11.11810 -80.86366 40887 ft 473 kts 152°
2026-04-25 23:21 11.06071 -80.83089 40886 ft 473 kts 152°
2026-04-25 23:21 11.00308 -80.79799 40881 ft 473 kts 152°
2026-04-25 23:22 10.94567 -80.76524 40878 ft 473 kts 152°
2026-04-25 23:23 10.85944 -80.71606 40880 ft 473 kts 152°
2026-04-25 23:23 10.80194 -80.68329 40890 ft 473 kts 152°
2026-04-25 23:24 10.74548 -80.65112 40885 ft 473 kts 152°
2026-04-25 23:24 10.68985 -80.61440 40888 ft 476 kts 140°
2026-04-25 23:25 10.64584 -80.56396 40886 ft 480 kts 128°
2026-04-25 23:25 10.60590 -80.50957 40882 ft 479 kts 128°
2026-04-25 23:26 10.56630 -80.45563 40885 ft 478 kts 128°
2026-04-25 23:26 10.52647 -80.40143 40886 ft 478 kts 128°
2026-04-25 23:27 10.48661 -80.34722 40885 ft 478 kts 128°
2026-04-25 23:27 10.44661 -80.29287 40721 ft 472 kts 128°
2026-04-25 23:27 10.42701 -80.26623 39614 ft 473 kts 128°
2026-04-25 23:28 10.40723 -80.23939 38440 ft 475 kts 129°
2026-04-25 23:28 10.38748 -80.21258 37619 ft 473 kts 129°
2026-04-25 23:28 10.36802 -80.18617 36763 ft 472 kts 129°
2026-04-25 23:28 10.34840 -80.15955 35864 ft 472 kts 128°
2026-04-25 23:29 10.32867 -80.13279 34944 ft 474 kts 128°
2026-04-25 23:29 10.30850 -80.10545 33990 ft 496 kts 128°
2026-04-25 23:29 10.28760 -80.07713 32975 ft 506 kts 128°
2026-04-25 23:29 10.26656 -80.04861 31997 ft 509 kts 128°
2026-04-25 23:30 10.24528 -80.01977 30979 ft 511 kts 128°
2026-04-25 23:30 10.22378 -79.99064 30100 ft 510 kts 128°
2026-04-25 23:30 10.20296 -79.96242 29586 ft 502 kts 127°
2026-04-25 23:30 10.18197 -79.93400 29005 ft 502 kts 127°
2026-04-25 23:31 10.15837 -79.90205 28287 ft 501 kts 127°
2026-04-25 23:31 10.13504 -79.87047 27552 ft 496 kts 127°
2026-04-25 23:31 10.11137 -79.83845 26794 ft 491 kts 127°
2026-04-25 23:31 10.08788 -79.80668 26020 ft 486 kts 126°
2026-04-25 23:32 10.06515 -79.77594 25269 ft 481 kts 126°
2026-04-25 23:32 10.04219 -79.74490 24489 ft 476 kts 126°
2026-04-25 23:32 10.01968 -79.71448 23722 ft 471 kts 125°
2026-04-25 23:32 9.99794 -79.68513 22975 ft 466 kts 125°
2026-04-25 23:33 9.97602 -79.65551 22212 ft 460 kts 124°
2026-04-25 23:33 9.95379 -79.62549 21648 ft 450 kts 125°
2026-04-25 23:33 9.93266 -79.59699 21554 ft 429 kts 125°
2026-04-25 23:33 9.91235 -79.56958 21407 ft 411 kts 125°
2026-04-25 23:34 9.89353 -79.54418 21222 ft 397 kts 125°
2026-04-25 23:34 9.87512 -79.52109 21019 ft 386 kts 132°
2026-04-25 23:34 9.85225 -79.50174 20804 ft 376 kts 145°
2026-04-25 23:34 9.82652 -79.48758 20266 ft 376 kts 153°
2026-04-25 23:35 9.80000 -79.47502 19651 ft 378 kts 154°
2026-04-25 23:35 9.77300 -79.46249 19059 ft 379 kts 155°
2026-04-25 23:35 9.74716 -79.45061 18510 ft 378 kts 155°
2026-04-25 23:35 9.72044 -79.43838 17961 ft 377 kts 156°
2026-04-25 23:36 9.69400 -79.42635 17412 ft 375 kts 156°
2026-04-25 23:36 9.67655 -79.41841 17056 ft 374 kts 156°
2026-04-25 23:36 9.64239 -79.40292 16360 ft 372 kts 156°
2026-04-25 23:36 9.61752 -79.39165 15839 ft 371 kts 156°
2026-04-25 23:37 9.59294 -79.38052 15313 ft 370 kts 156°
2026-04-25 23:37 9.56875 -79.36764 14805 ft 368 kts 147°
2026-04-25 23:37 9.54688 -79.35179 14631 ft 354 kts 144°
2026-04-25 23:37 9.52608 -79.33630 14570 ft 339 kts 144°
2026-04-25 23:38 9.50609 -79.32138 14465 ft 327 kts 144°
2026-04-25 23:38 9.48718 -79.30727 14346 ft 320 kts 144°
2026-04-25 23:38 9.46797 -79.29295 14226 ft 324 kts 144°
2026-04-25 23:38 9.44812 -79.27816 14085 ft 322 kts 144°
2026-04-25 23:39 9.42838 -79.26344 13970 ft 322 kts 144°
2026-04-25 23:39 9.40850 -79.24863 13852 ft 321 kts 144°
2026-04-25 23:39 9.38936 -79.23436 13728 ft 320 kts 144°
2026-04-25 23:39 9.36965 -79.21967 13581 ft 320 kts 144°
2026-04-25 23:40 9.34996 -79.20499 13466 ft 318 kts 144°
2026-04-25 23:40 9.33027 -79.19032 13404 ft 319 kts 144°
2026-04-25 23:40 9.31154 -79.17637 13394 ft 319 kts 144°
2026-04-25 23:40 9.29293 -79.16251 13325 ft 319 kts 145°
2026-04-25 23:41 9.27202 -79.15189 13192 ft 315 kts 168°
2026-04-25 23:41 9.24949 -79.15090 13029 ft 312 kts 192°
2026-04-25 23:41 9.22812 -79.15874 12624 ft 312 kts 210°
2026-04-25 23:41 9.20847 -79.17061 12188 ft 312 kts 214°
2026-04-25 23:42 9.18913 -79.18339 11798 ft 311 kts 215°
2026-04-25 23:42 9.17041 -79.19594 11409 ft 310 kts 215°
2026-04-25 23:42 9.15167 -79.20850 11009 ft 308 kts 215°
2026-04-25 23:42 9.13299 -79.22101 10640 ft 307 kts 215°
2026-04-25 23:43 9.11450 -79.23338 10261 ft 306 kts 215°
2026-04-25 23:43 9.09590 -79.24583 9842 ft 306 kts 215°
2026-04-25 23:43 9.07764 -79.25805 9513 ft 302 kts 215°
2026-04-25 23:43 9.05940 -79.27024 9319 ft 294 kts 215°
2026-04-25 23:44 9.04061 -79.28282 8716 ft 302 kts 215°
2026-04-25 23:44 9.02203 -79.29494 8649 ft 288 kts 212°
2026-04-25 23:44 9.00370 -79.30527 8583 ft 276 kts 210°
2026-04-25 23:44 8.98584 -79.31502 8236 ft 277 kts 210°
2026-04-25 23:45 8.96738 -79.32510 7892 ft 277 kts 210°
2026-04-25 23:45 8.94926 -79.33502 7626 ft 274 kts 210°
2026-04-25 23:45 8.93175 -79.34462 7559 ft 263 kts 210°
2026-04-25 23:45 8.91440 -79.35413 7238 ft 264 kts 210°
2026-04-25 23:46 8.89721 -79.36356 6950 ft 263 kts 209°
2026-04-25 23:46 8.88026 -79.37284 6703 ft 261 kts 210°
2026-04-25 23:46 8.86421 -79.38313 6371 ft 260 kts 225°
2026-04-25 23:46 8.85439 -79.39962 6029 ft 258 kts 256°
2026-04-25 23:47 8.85439 -79.41823 5789 ft 243 kts 288°
2026-04-25 23:47 8.86143 -79.43463 5548 ft 229 kts 298°
2026-04-25 23:47 8.86970 -79.44930 4792 ft 225 kts 302°
2026-04-25 23:47 8.87873 -79.46335 4313 ft 211 kts 313°
2026-04-25 23:48 8.89180 -79.47128 3822 ft 197 kts 344°
2026-04-25 23:48 8.90643 -79.47194 3390 ft 187 kts 18°
2026-04-25 23:48 8.91833 -79.46616 3075 ft 180 kts 31°
2026-04-25 23:48 8.92982 -79.45927 2848 ft 180 kts 31°
2026-04-25 23:49 8.94174 -79.45245 2589 ft 176 kts 29°
2026-04-25 23:49 8.95346 -79.44636 2170 ft 168 kts 29°
2026-04-25 23:49 8.96443 -79.44027 1754 ft 153 kts 31°
2026-04-25 23:49 8.97454 -79.43475 1517 ft 151 kts 31°
2026-04-25 23:50 8.98428 -79.42902 1273 ft 146 kts 34°
2026-04-25 23:50 8.99334 -79.42329 1071 ft 151 kts 33°
2026-04-25 23:50 9.00337 -79.41753 956 ft 153 kts 31°
2026-04-25 23:50 9.01356 -79.41184 698 ft 156 kts 30°
2026-04-25 23:51 9.02360 -79.40635 526 ft 152 kts 32°
2026-04-25 23:51 9.03333 -79.40081 370 ft 154 kts 32°
2026-04-25 23:51 9.04297 -79.39529 177 ft 157 kts 32°
2026-04-25 23:51 9.05276 -79.38983 41 ft 139 kts 33°
2026-04-25 23:52 9.05989 -79.38554 52 ft 76 kts 31°
2026-04-25 23:52 9.06319 -79.38389 56 ft 36 kts
2026-04-25 23:52 9.06507 -79.38384 61 ft 19 kts 359°
2026-04-25 23:52 9.06643 -79.38415 64 ft 16 kts 311°
2026-04-25 23:53 9.06642 -79.38474 65 ft 8 kts 231°
2026-04-25 23:53 9.06609 -79.38513 65 ft 5 kts 252°
2026-04-25 23:53 9.06620 -79.38571 65 ft 4 kts 295°
2026-04-25 23:53 9.06642 -79.38612 66 ft 4 kts 299°
2026-04-25 23:54 9.06644 -79.38618 66 ft 0 kts 298°